CW9183 Weather Reports


time (UTC)temp
F
wind
direction
speed
knots
gust
knots
rain 1hr
in
rain 24hr
in
rain mn
in
humidity
%
barometer
mb
20260504100534 50 0 0.0 0.0 0.00 0.00 0.00 84 1019.0
20260504081554 51 115 0.0 1.7 0.00 0.00 0.00 79 1019.3
20260504081037 51 0 0.0 1.7 0.00 0.00 0.00 79 1019.3
20260504080537 51 0 0.0 1.7 0.00 0.00 0.00 79 1019.4
20260504060106 49 0 0.0 3.5 0.00 0.00 0.00 86 1019.9
20260504050536 45 159 0.9 3.5 0.00 0.00 0.00 86 1019.6
20260504045539 45 0 0.0 3.5 0.00 0.00 0.00 86 1019.6
20260504045035 45 0 0.9 3.5 0.00 0.00 0.00 86 1019.7
20260504044546 45 0 0.0 0.0 0.00 0.00 0.00 85 1019.7
20260504044035 45 0 0.0 0.0 0.00 0.00 0.00 85 1019.7
20260504043536 45 0 0.0 0.0 0.00 0.00 0.00 84 1019.7
20260504043043 45 0 0.0 0.9 0.00 0.00 0.00 83 1019.7
20260504042532 45 0 0.0 1.7 0.00 0.00 0.00 83 1019.8
20260504042035 45 0 0.0 1.7 0.00 0.00 0.00 83 1019.7
20260504041547 45 160 0.0 2.6 0.00 0.00 0.00 83 1019.8
20260504041034 45 160 0.9 3.5 0.00 0.00 0.00 83 1019.7
20260504040534 45 160 0.9 3.5 0.00 0.00 0.00 82 1019.7
20260504040039 45 0 0.0 0.0 0.00 0.00 0.00 81 1019.7
20260504035536 45 0 0.0 0.0 0.00 0.00 0.00 81 1019.7
20260504035036 45 0 0.0 0.0 0.00 0.00 0.00 81 1019.7
20260504034539 45 0 0.0 0.9 0.00 0.00 0.00 81 1019.7
20260504034033 45 0 0.0 2.6 0.00 0.00 0.00 81 1019.7
20260504033535 45 0 0.0 3.5 0.00 0.00 0.00 81 1019.6
20260504033051 45 161 0.9 3.5 0.00 0.00 0.00 80 1019.6
20260504032535 45 163 0.0 1.7 0.00 0.00 0.00 80 1019.7
20260504032038 45 0 0.0 1.7 0.00 0.00 0.00 80 1019.5
20260504031556 45 0 0.0 0.0 0.00 0.00 0.00 79 1019.5
20260504031032 45 0 0.0 0.0 0.00 0.00 0.00 79 1019.4
20260504030533 45 0 0.0 1.7 0.00 0.00 0.00 79 1019.4
20260504030045 45 0 0.0 3.5 0.00 0.00 0.00 79 1019.4
20260504025535 45 163 0.0 3.5 0.00 0.00 0.00 79 1019.5
20260504025035 45 163 1.7 3.5 0.00 0.00 0.00 79 1019.4
20260504024540 45 0 0.0 4.3 0.00 0.00 0.00 78 1019.4
20260504024036 45 0 0.0 4.3 0.00 0.00 0.00 77 1019.5
20260504023532 46 168 0.9 4.3 0.00 0.00 0.00 77 1019.5
20260504023050 46 151 0.0 2.6 0.00 0.00 0.00 77 1019.5
20260504022537 46 151 0.0 1.7 0.00 0.00 0.00 76 1019.4
20260504022034 46 0 0.0 1.7 0.00 0.00 0.00 76 1019.4
20260504021539 46 0 0.0 1.7 0.00 0.00 0.00 77 1019.4
20260504021038 47 150 0.9 4.3 0.00 0.00 0.00 77 1019.4
20260504020536 47 0 0.0 4.3 0.00 0.00 0.00 76 1019.5
20260504020046 47 165 2.6 4.3 0.00 0.00 0.00 75 1019.4
20260504015533 47 169 1.7 4.3 0.00 0.00 0.00 73 1019.4
20260504015036 48 0 0.0 0.0 0.00 0.00 0.00 69 1019.3
20260504014553 48 0 0.0 0.0 0.00 0.00 0.00 68 1019.4
20260504014034 48 0 0.0 0.0 0.00 0.00 0.00 68 1019.3
20260504013536 49 0 0.0 0.0 0.00 0.00 0.00 67 1019.3
20260504013042 49 0 0.0 0.0 0.00 0.00 0.00 67 1019.4
20260504012535 49 0 0.0 0.0 0.00 0.00 0.00 66 1019.4
20260504012037 49 0 0.0 0.0 0.00 0.00 0.00 65 1019.3
20260504011549 50 0 0.0 0.0 0.00 0.00 0.00 64 1019.3
20260504011037 50 0 0.0 0.0 0.00 0.00 0.00 63 1019.3
20260504010533 51 0 0.0 0.0 0.00 0.00 0.00 62 1019.3
20260504010104 51 0 0.0 0.9 0.00 0.00 0.00 62 1019.1
20260504005537 51 0 0.0 0.9 0.00 0.00 0.00 62 1019.3
20260504005037 52 0 0.0 0.0 0.00 0.00 0.00 60 1019.1
20260504004549 52 0 0.0 0.0 0.00 0.00 0.00 59 1019.2
20260504004037 53 0 0.0 0.0 0.00 0.00 0.00 57 1019.0
20260504003537 53 0 0.0 0.0 0.00 0.00 0.00 57 1019.1
20260504003044 54 0 0.0 0.0 0.00 0.00 0.00 56 1019.0
20260504002537 54 0 0.0 0.9 0.00 0.00 0.00 54 1018.7
20260504002036 55 0 0.0 0.9 0.00 0.00 0.00 54 1018.7
20260504001548 55 0 0.0 0.0 0.00 0.00 0.00 53 1018.7
20260504001038 56 0 0.0 1.7 0.00 0.00 0.00 52 1018.8
20260504000535 56 0 0.0 1.7 0.00 0.00 0.00 51 1018.5
20260504000050 57 192 0.0 1.7 0.00 0.00 0.00 49 1018.5
20260503235536 58 0 0.0 0.0 0.00 0.00 0.00 46 1018.5
20260503235037 59 0 0.0 1.7 0.00 0.00 0.00 46 1018.4
20260503234550 59 0 0.0 1.7 0.00 0.00 0.00 46 1018.3
20260503234038 60 0 0.0 0.0 0.00 0.00 0.00 45 1018.2
20260503233535 60 0 0.0 0.0 0.00 0.00 0.00 42 1018.2
20260503233053 61 0 0.0 0.0 0.00 0.00 0.00 40 1018.3
20260503232537 61 0 0.0 1.7 0.00 0.00 0.00 40 1018.3
20260503232037 62 0 0.0 1.7 0.00 0.00 0.00 42 1018.1
20260503231546 62 0 0.9 1.7 0.00 0.00 0.00 38 1018.2
20260503231035 62 315 0.9 3.5 0.00 0.00 0.00 38 1018.1
20260503230536 63 0 0.0 4.3 0.00 0.00 0.00 38 1018.2
20260503230053 63 319 1.7 7.0 0.00 0.00 0.00 38 1018.1
20260503225535 63 306 3.5 7.0 0.00 0.00 0.00 34 1018.1
20260503225036 63 299 3.5 7.0 0.00 0.00 0.00 34 1018.1
20260503224549 63 308 0.9 4.3 0.00 0.00 0.00 34 1018.2
20260503224035 62 309 1.7 8.7 0.00 0.00 0.00 34 1018.2
20260503223536 62 324 4.3 10.4 0.00 0.00 0.00 34 1018.3
20260503223051 63 296 3.5 10.4 0.00 0.00 0.00 32 1018.0
20260503222534 62 342 4.3 10.4 0.00 0.00 0.00 34 1018.1
20260503222036 62 292 2.6 8.7 0.00 0.00 0.00 32 1018.2
20260503221557 62 293 3.5 8.7 0.00 0.00 0.00 32 1018.2
20260503221036 62 318 5.2 12.2 0.00 0.00 0.00 36 1018.4
20260503220536 62 311 3.5 12.2 0.00 0.00 0.00 33 1018.3
20260503215535 62 297 3.5 11.3 0.00 0.00 0.00 37 1018.2
20260503215035 62 306 5.2 11.3 0.00 0.00 0.00 34 1018.2
20260503214545 62 296 3.5 10.4 0.00 0.00 0.00 33 1018.2
20260503214035 62 299 5.2 10.4 0.00 0.00 0.00 35 1018.1
20260503213537 62 299 5.2 10.4 0.00 0.00 0.00 34 1018.1
20260503213049 62 279 4.3 10.4 0.00 0.00 0.00 34 1018.1
20260503212536 62 276 5.2 12.2 0.00 0.00 0.00 35 1018.2
20260503212036 62 296 4.3 12.2 0.00 0.00 0.00 35 1018.2
20260503211544 62 324 6.1 10.4 0.00 0.00 0.00 34 1018.1
20260503211035 61 318 5.2 16.5 0.00 0.00 0.00 34 1018.1
20260503210536 61 291 5.2 16.5 0.00 0.00 0.00 34 1018.0
20260503210055 61 312 9.6 15.6 0.00 0.00 0.00 34 1018.1
20260503205535 61 236 7.8 15.6 0.00 0.00 0.00 33 1018.1
20260503205037 61 316 6.1 13.9 0.00 0.00 0.00 33 1017.9
20260503204601 61 271 7.0 13.9 0.00 0.00 0.00 33 1018.1
20260503204037 61 329 7.0 13.0 0.00 0.00 0.00 33 1017.9
20260503203535 61 355 7.0 12.2 0.00 0.00 0.00 34 1018.0
20260503203053 61 330 5.2 11.3 0.00 0.00 0.00 36 1018.0
20260503202536 61 305 7.0 13.0 0.00 0.00 0.00 34 1018.2
20260503202036 61 320 7.0 16.5 0.00 0.00 0.00 37 1018.1
20260503201549 60 338 7.0 16.5 0.00 0.00 0.00 35 1018.1
20260503201035 60 304 4.3 13.9 0.00 0.00 0.00 37 1018.1
20260503200535 60 312 6.1 13.9 0.00 0.00 0.00 39 1018.3
20260503200047 60 331 6.1 13.9 0.00 0.00 0.00 36 1018.3
20260503195539 60 325 7.8 13.9 0.00 0.00 0.00 36 1018.4
20260503195036 60 312 5.2 15.6 0.00 0.00 0.00 38 1018.5
20260503194603 60 315 8.7 15.6 0.00 0.00 0.00 37 1018.6
20260503194036 60 307 7.0 15.6 0.00 0.00 0.00 38 1018.7
20260503193534 60 311 8.7 15.6 0.00 0.00 0.00 38 1018.9
20260503193044 60 294 6.1 12.2 0.00 0.00 0.00 38 1018.8
20260503192535 59 302 6.1 18.2 0.00 0.00 0.00 38 1019.0
20260503192037 59 269 7.8 18.2 0.00 0.00 0.00 37 1019.2
20260503191645 59 321 10.4 18.2 0.00 0.00 0.00 36 1019.1
20260503191036 59 329 6.1 12.2 0.00 0.00 0.00 40 1019.1
20260503190537 59 292 4.3 10.4 0.00 0.00 0.00 38 1019.1
20260503190057 58 293 3.5 13.0 0.00 0.00 0.00 39 1019.2
20260503185535 58 325 8.7 13.0 0.00 0.00 0.00 38 1019.4
20260503185036 58 306 7.8 13.0 0.00 0.00 0.00 39 1019.3
20260503184544 58 306 7.8 13.9 0.00 0.00 0.00 40 1019.3
20260503184036 58 310 5.2 13.9 0.00 0.00 0.00 40 1019.3
20260503183535 58 310 3.5 11.3 0.00 0.00 0.00 36 1019.2
20260503183052 58 267 4.3 13.9 0.00 0.00 0.00 39 1019.3
20260503182536 58 313 7.0 13.9 0.00 0.00 0.00 39 1019.4
20260503182036 58 318 3.5 15.6 0.00 0.00 0.00 39 1019.5
20260503181543 58 313 5.2 15.6 0.00 0.00 0.00 38 1019.5
20260503181036 58 323 7.0 15.6 0.00 0.00 0.00 42 1019.5
20260503180536 57 311 5.2 15.6 0.00 0.00 0.00 40 1019.6
20260503175538 57 324 6.1 15.6 0.00 0.00 0.00 43 1019.6
20260503175035 56 277 7.8 13.0 0.00 0.00 0.00 40 1019.7
20260503174551 56 309 3.5 14.8 0.00 0.00 0.00 43 1019.8
20260503174039 56 268 7.8 14.8 0.00 0.00 0.00 41 1019.8
20260503173537 56 294 4.3 14.8 0.00 0.00 0.00 43 1019.8
20260503173136 56 296 7.0 16.5 0.00 0.00 0.00 42 1019.8
20260503172538 56 287 5.2 16.5 0.00 0.00 0.00 44 1019.9
20260503172035 55 288 7.0 14.8 0.00 0.00 0.00 45 1020.0
20260503171548 55 309 7.8 13.9 0.00 0.00 0.00 44 1020.0
20260503171036 55 309 5.2 13.0 0.00 0.00 0.00 46 1019.9
20260503170536 55 304 7.8 14.8 0.00 0.00 0.00 44 1020.0
20260503150535 52 306 7.8 20.0 0.00 0.00 0.00 47 1020.4
20260503131035 50 288 6.1 15.6 0.00 0.00 0.00 56 1020.1
20260503130531 50 325 7.8 18.2 0.00 0.00 0.00 57 1020.1
20260503110535 47 302 7.8 11.3 0.00 0.00 0.00 66 1019.1